Miscellaneous Local Product
Issued by NWS North Platte, NE

Home | Current Version | Previous Version | Graphics & Text | Print | Product List | Glossary On
Versions: 1 2 3 4 5 6 7 8 9 10 11 12 13 14 15 16 17 18 19 20 21 22 23 24 25 26 27 28 29 30 31 32 33 34 35 36 37 38 39 40 41 42 43 44 45 46 47 48 49 50
000
AXUS43 KLBF 160010
MISLBF


WESTERN AND NORTH CENTRAL NEBRASKA HOURLY WEATHER ROUNDUP
NATIONAL WEATHER SERVICE NORTH PLATTE NE
700 PM CDT MON SEP 15 2014

***STATIONS NOT REPORTING VARIABLES SUCH AS SKY/WEATHER OR
PRESSURE ARE PROVIDED BY THE NEBRASKA DEPARTMENT OF
ROADS...RAWS...AND APRS NETWORKS...AND ARE NOT UNDER
NATIONAL WEATHER SERVICE QUALITY CONTROL***

...OBSERVATIONS IN AND NEAR THE EASTERN PANHANDLE OF NEBRASKA...

CITY           SKY/WX    TMP DP  RH WIND       PRES   REMARKS
PINE RIDGE     SUNNY     67  42  40 S10       30.17F
CHADRON        SUNNY     69  45  41 S14       30.15F
ALLIANCE       SUNNY     65  43  44 S16       30.21F
SIDNEY         SUNNY     66  44  45 S13       30.25S
WHITECLAY        N/A     67  41  38 S8          N/A
RUSHVILLE        N/A     66  30  26 S21         N/A
LISCO            N/A     69  42  36 E10         N/A
BIG SPRINGS      N/A     68  47  46 S7          N/A
$$

...OBSERVATIONS IN NORTH CENTRAL NEBRASKA...

CITY           SKY/WX    TMP DP  RH WIND       PRES   REMARKS
VALENTINE      CLEAR     64  36  35 SE9       30.22F
THEDFORD       CLEAR     65  39  38 SE8       30.25S
AINSWORTH      CLEAR     60  39  45 CALM      30.24S
O`NEILL        CLEAR     60  43  53 CALM      30.25S
ORD            CLEAR     62  40  44 E3        30.24S
BROKEN BOW     CLEAR     64  39  39 E5        30.25S
SPRINGVIEW       N/A     64  38  39 CALM        N/A
ROSE             N/A     66  41  40 CALM        N/A
NEWPORT          N/A     59  43  55 E3          N/A
COMSTOCK         N/A     67  44  42 CALM        N/A
CHAMBERS         N/A     59  37  44 CALM        N/A
$$

...OBSERVATIONS IN SOUTHWEST NEBRASKA AND FAR NORTHEAST COLORADO...

CITY           SKY/WX    TMP DP  RH WIND       PRES   REMARKS
WRAY           FAIR      67  46  47 SE9       30.25F
HOLYOKE        FAIR      66  45  45 S8        30.24F
IMPERIAL       CLEAR     67  43  41 SE12      30.24F
OGALLALA       CLEAR     67  45  44 SE5       30.23S
NORTH PLATTE   CLEAR     64  45  49 SE5       30.24F
MCCOOK         CLEAR     66  43  43 E5        30.25S
LEXINGTON      CLEAR     62  48  59 E3        30.26S
PAXTON           N/A     67  44  43 CALM        N/A
SUTHERLAND       N/A     64  32  31 E3          N/A
BRADY            N/A     65  45  49 CALM        N/A
GOTHENBURG       N/A     66  39  37 SE5         N/A
CALLAWAY         N/A     68  46  44 SE5         N/A
$$

...SOME WEATHER OBSERVATIONS FROM AROUND THE REGION...

CITY           SKY/WX    TMP DP  RH WIND       PRES   REMARKS
DENVER         MOSUNNY   73  51  46 E10       30.24F
LARAMIE        PTSUNNY   65  43  44 SE15      30.30R
CHEYENNE       SUNNY     65  40  39 S14       30.27S
SCOTTSBLUFF    SUNNY     70  44  39 SE16      30.18F
RAPID CITY     SUNNY     66  44  45 S14       30.14F
PIERRE         CLEAR     62  39  42 SE5       30.18F
WINNER         FAIR      63  36  36 SE5       30.22F
SIOUX FALLS    CLEAR     60  44  55 NW3       30.23S
OMAHA          MOCLDY    60  46  59 N6        30.24S
GRAND ISLAND   CLEAR     62  43  49 NE6       30.26S
KANSAS CITY    MOCLDY    62  53  72 N10       30.19R
WICHITA        PTCLDY    72  60  66 NE14      30.15R
HAYS           CLEAR     68  52  56 NE9       30.22F
LIBERAL        CLOUDY    63  54  72 NE12      30.24R
GOODLAND       CLEAR     66  49  54 E7        30.27S
$$



USA.gov is the U.S. government's official web portal to all federal, state and local government web resources and services.